Location: Oklahoma City
(35.4680°N, 97.5160°W)
Time: 10:27:17
(UTC-05:00)

ISS - Visible Passes

Search period start: 17 April 2014 00:00
Search period end: 27 April 2014 00:00
Orbit: 414 x 419 km, 51.6° (Epoch: 17 April)

Date Brightness Start Highest point End Pass type
(mag) Time Alt. Az. Time Alt. Az. Time Alt. Az.
17 Apr 0.1 22:52:24 10° NNW 22:52:37 11° NNW 22:52:37 11° NNW visible
18 Apr -0.7 22:04:33 10° N 22:06:11 15° NNE 22:06:11 15° NNE visible
19 Apr -0.6 21:17:04 10° N 21:18:03 11° NNE 21:19:02 10° NE visible
19 Apr 0.0 22:52:02 10° NW 22:52:38 14° NW 22:52:38 14° NW visible
20 Apr -1.7 22:03:48 10° NNW 22:06:10 30° N 22:06:10 30° N visible
21 Apr -1.5 21:15:41 10° NNW 21:18:22 22° NNE 21:19:43 17° ENE visible
21 Apr -0.1 22:52:04 10° WNW 22:52:37 14° WNW 22:52:37 14° WNW visible
22 Apr -2.6 22:03:26 10° NW 22:06:11 55° WNW 22:06:11 55° WNW visible
23 Apr -3.0 21:14:57 10° NW 21:18:16 57° NE 21:19:46 28° ESE visible
24 Apr -1.3 22:03:37 10° WNW 22:06:14 21° SW 22:06:18 21° SW visible
25 Apr -2.3 21:14:36 10° WNW 21:17:46 40° SW 21:19:57 17° SSE visible
